User: anonymous   Login
Location: Unspecified
(0.0000°N, 0.0000°E)
Time: 20:47:03
(UTC+00:00)
Language:

ASUSAT - Orbit

View from above orbital plane
View from above orbital plane
View from above satellite
View from above satellite

Ground track
Ground track

The orbit data is extracted from the following two-line orbital elements,

1 26065U 00004E   22222.32666835  .00000075  00000-0  44860-4 0  9990
2 26065 100.2296 240.8486 0037215  47.1808 313.2490 14.37039954181422
Epoch (UTC): 10 August 2022 07:50:24
Eccentricity: 0.0037215
inclination: 100.2296°
perigee height: 742 km
apogee height: 795 km
right ascension of ascending node: 240.8486°
argument of perigee: 47.1808°
revolutions per day: 14.37039954
mean anomaly at epoch: 313.2490°
orbit number at epoch: 18142

The dashed part of the orbit path shows where the satellite is in the earth's shadow,  

DLR